[[{"header":{"parameterUnit":"m.s-1","parameterCategory":1,"la1":30.2991,"la2":30.254,"lo1":-89.0895,"lo2":-89.0444,"dy":0.0017,"dx":0.0017,"nx":28,"ny":28,"refTime":"2023-04-06T21:00:00:Z","depth":0,"parameterNumber":2,"parameterNumberName":"U-component_of_WINDS"},"data":[0,0,0,0,0,0,0,0,0,0,0,0,0,0,0,0,0,0,0,0,0,0,0,0,0,0,0,0,0,0,0,0,0,0,0,0,0,0,0,0,0,0,0,0,0,0,0,0,0,0,0,0,0,0,0,0,0,0,1.534,1.5342,0,1.5561,1.5564,1.5566,1.5606,1.5604,1.5602,1.56,1.5836,1.5844,1.5852,0,0,0,0,0,0,0,0,0,0,0,0,0,1.4962,1.4969,1.534,1.5343,1.5345,1.5561,1.5564,1.5567,1.5606,1.5604,1.5601,1.5599,1.5834,1.5843,1.5853,0,0,0,0,0,0,0,0,0,0,0,0,0,1.5149,1.4971,1.5339,1.539,1.5397,1.556,1.5564,1.5568,1.5606,1.5603,1.5601,1.5598,1.583,1.5842,1.5854,1.5984,0,0,1.5891,1.5896,0,0,0,0,0,0,0,0,1.5139,1.5163,1.538,1.5387,1.5395,1.5553,1.5517,1.5708,1.5607,1.5527,1.56,1.5597,1.5745,1.5764,1.5812,1.5995,1.6005,1.5892,1.5899,1.5904,1.5908,0,0,0,0,0,0,0,1.5126,1.5154,1.5428,1.5383,1.5393,1.5406,1.543,1.5554,1.5649,1.5534,1.5537,1.5562,1.5748,1.58,1.5817,1.6009,1.5892,1.5902,1.591,1.5914,1.6315,1.6318,0,0,0,0,0,0,1.5102,1.5143,1.5421,1.5434,1.5257,1.5415,1.5441,1.5505,1.5648,1.5667,1.5565,1.5563,1.5781,1.5803,1.5826,1.599,1.5904,1.5916,1.5922,1.6311,1.6315,1.6319,0,0,0,0,0,0,1.5094,1.5126,1.5412,1.529,1.5327,1.5424,1.5496,1.5511,1.5562,1.5671,1.5689,1.5599,1.5779,1.5809,1.5945,1.5999,1.5921,1.5932,1.6307,1.6313,1.6317,1.6317,0,0,0,0,0,0,1.5083,1.5123,1.5171,1.529,1.5333,1.5523,1.5499,1.5517,1.5582,1.5582,1.5708,1.5726,1.578,1.5927,1.5957,1.6014,1.5941,1.6303,1.631,1.6316,1.6313,1.6322,1.6329,0,0,0,0,0,1.5069,1.5163,1.5173,1.5206,1.5394,1.5526,1.5551,1.5608,1.5586,1.5637,1.5707,1.5722,1.5987,1.594,1.5974,1.6036,1.63,1.6308,1.6315,1.6309,1.632,1.6329,0,0,0,0,0,0,1.5051,1.518,1.5192,1.5327,1.5415,1.5532,1.5598,1.5617,1.5715,1.5712,1.5781,1.581,1.5942,1.6003,1.5947,1.6171,1.6143,1.6158,1.6127,1.6138,1.6146,1.6129,1.5951,0,0,0,0,0,1.5062,1.5155,1.5264,1.5373,1.5416,1.5499,1.5559,1.5595,1.569,1.5729,1.5809,1.5904,1.6009,1.6077,1.6179,1.6322,1.6352,1.6382,1.639,1.6396,1.6409,1.6492,1.6507,1.6344,1.6344,1.6344,0,0,1.5087,1.5169,1.5224,1.5372,1.5444,1.5542,1.5531,1.5635,1.571,1.5746,1.5878,1.5941,1.6051,1.6192,1.6258,1.6247,1.646,1.6406,1.641,1.6419,1.6501,1.6517,1.653,1.635,1.6349,1.6348,0,0,1.5183,1.5253,1.5353,1.5425,1.5534,1.5589,1.5613,1.5728,1.577,1.5903,1.5933,1.6025,1.6204,1.6282,1.6346,1.6473,1.6493,1.6505,1.6549,1.6629,1.6642,1.6654,1.6702,1.6718,1.6517,1.6517,1.6517,0,1.5202,1.5347,1.5402,1.5505,1.5571,1.5605,1.5709,1.5778,1.5916,1.5962,1.5947,1.6173,1.625,1.641,1.6442,1.6491,1.6524,1.6492,1.6635,1.6647,1.6659,1.6706,1.6724,1.6518,1.6518,1.6518,1.6518,0,1.5366,1.5467,1.5535,1.5664,1.5738,1.5841,1.5915,1.5983,1.6013,1.6071,1.6209,1.6302,1.6425,1.6466,1.6498,1.6633,1.6623,1.662,1.6593,1.6675,1.672,1.6738,1.652,1.6519,1.6519,1.6519,0,0,1.5457,1.5615,1.5639,1.5699,1.5823,1.5904,1.601,1.6128,1.6187,1.6282,1.6375,1.6526,1.6525,1.6597,1.6638,1.6708,1.6807,1.6698,1.6702,1.6717,1.6965,1.6967,1.6986,1.682,1.6823,1.6826,1.6956,0,1.5569,1.5755,1.5808,1.5967,1.6063,1.6098,1.6192,1.628,1.6337,1.643,1.6495,1.6602,1.6591,1.6635,1.6706,1.6779,1.6858,1.6771,1.6911,1.6915,1.6883,1.7009,1.7011,1.7129,1.6974,1.6977,1.6979,0,1.5724,1.5819,1.5986,1.6099,1.6142,1.6223,1.6337,1.6424,1.6527,1.6564,1.6644,1.6679,1.6796,1.6762,1.6925,1.6865,1.6926,1.6971,1.6977,1.6993,1.6953,1.7031,1.7168,1.7186,1.7007,1.7005,1.7003,0,1.5775,1.5945,1.6068,1.6118,1.6253,1.631,1.637,1.6468,1.6537,1.6637,1.6683,1.6797,1.686,1.6949,1.7016,1.6984,1.7175,1.7145,1.7212,1.7211,1.7252,1.7248,1.7402,1.7288,1.7288,1.7288,1.7287,0,1.5896,1.5997,1.6093,1.6169,1.6285,1.6348,1.6462,1.6524,1.6612,1.6704,1.6742,1.6828,1.691,1.7008,1.7061,1.7191,1.7219,1.7255,1.7268,1.7252,1.7248,1.7294,1.7288,1.7293,1.7291,1.729,1.729,0,1.5973,1.604,1.6177,1.6292,1.6324,1.6405,1.6506,1.6583,1.6642,1.6758,1.6789,1.6883,1.7,1.7075,1.7226,1.7262,1.7404,1.7414,1.7368,1.7375,1.7438,1.7432,1.7628,1.7659,1.7523,1.7524,1.7525,0,1.6045,1.6124,1.6248,1.631,1.6369,1.6469,1.6538,1.6604,1.6675,1.6799,1.6862,1.6981,1.708,1.7267,1.7352,1.7468,1.7482,1.7543,1.75,1.7483,1.7486,1.7481,1.7491,1.7551,1.7552,1.7553,1.7553,0,1.6168,1.6198,1.6294,1.6403,1.6484,1.6573,1.6664,1.6713,1.6796,1.6875,1.6993,1.707,1.7223,1.7342,1.7466,1.7532,1.7559,1.7566,1.7588,1.7573,1.7544,1.7563,1.7389,1.7561,1.7561,1.756,1.756,1.7559,1.6247,1.632,1.6418,1.6525,1.6599,1.6682,1.6761,1.6829,1.6928,1.7055,1.7089,1.7214,1.7319,1.7487,1.7556,1.7658,1.765,1.7682,1.769,1.7697,1.7699,1.7526,1.7681,1.768,1.768,1.768,1.768,0,1.6374,1.6438,1.6536,1.6659,1.6744,1.6757,1.6859,1.693,1.7038,1.7131,1.7228,1.7366,1.7483,1.7576,1.7697,1.7761,1.7777,1.7791,1.7788,1.7804,1.7698,1.7667,1.7777,1.7777,1.7777,1.7777,1.7777,1.7777,1.6449,1.6573,1.6615,1.6777,1.6843,1.6963,1.702,1.7099,1.7173,1.7325,1.7421,1.748,1.7575,1.7703,1.7813,1.7838,1.7882,1.7894,1.7922,1.7821,1.7811,1.78,1.7772,1.7902,1.7903,1.802,1.8021,1.8021]},{"header":{"parameterUnit":"m.s-1","parameterCategory":1,"la1":30.2991,"la2":30.254,"lo1":-89.0895,"lo2":-89.0444,"dy":0.0017,"dx":0.0017,"nx":28,"ny":28,"refTime":"2023-04-06T21:00:00:Z","depth":0,"parameterNumber":3,"parameterNumberName":"V-component_of_WINDS"},"data":[0,0,0,0,0,0,0,0,0,0,0,0,0,0,0,0,0,0,0,0,0,0,0,0,0,0,0,0,0,0,0,0,0,0,0,0,0,0,0,0,0,0,0,0,0,0,0,0,0,0,0,0,0,0,0,0,0,0,-2.1939,-2.194,0,-2.1999,-2.2,-2.2001,-2.2057,-2.2057,-2.2058,-2.2059,-2.2115,-2.2116,-2.2117,0,0,0,0,0,0,0,0,0,0,0,0,0,-2.1867,-2.1868,-2.1939,-2.194,-2.194,-2.1999,-2.2,-2.2001,-2.2056,-2.2057,-2.2058,-2.2059,-2.2115,-2.2116,-2.2117,0,0,0,0,0,0,0,0,0,0,0,0,0,-2.191,-2.1868,-2.1939,-2.1975,-2.1979,-2.1999,-2.2,-2.2001,-2.2056,-2.2057,-2.2058,-2.2059,-2.2115,-2.2116,-2.2117,-2.2104,0,0,-2.2121,-2.2121,0,0,0,0,0,0,0,0,-2.1907,-2.1912,-2.1969,-2.1973,-2.1977,-2.2022,-2.1996,-2.2035,-2.2056,-2.2027,-2.2059,-2.206,-2.2083,-2.2087,-2.2096,-2.2106,-2.2109,-2.2121,-2.2122,-2.2122,-2.2123,0,0,0,0,0,0,0,-2.1904,-2.191,-2.1963,-2.197,-2.1975,-2.1987,-2.1995,-2.2003,-2.2048,-2.2029,-2.2034,-2.204,-2.2085,-2.2094,-2.2097,-2.211,-2.2121,-2.2122,-2.2123,-2.2123,-2.2113,-2.2112,0,0,0,0,0,0,-2.1896,-2.1907,-2.1961,-2.1964,-2.1944,-2.1988,-2.1996,-2.2006,-2.2048,-2.2056,-2.2039,-2.2043,-2.2092,-2.2096,-2.21,-2.2087,-2.2122,-2.2124,-2.2124,-2.2114,-2.2113,-2.2112,0,0,0,0,0,0,-2.1895,-2.1901,-2.1958,-2.1937,-2.1945,-2.1988,-2.1999,-2.2007,-2.2016,-2.2056,-2.2063,-2.2041,-2.2093,-2.2098,-2.2103,-2.209,-2.2124,-2.2125,-2.2116,-2.2114,-2.2113,-2.2062,0,0,0,0,0,0,-2.1892,-2.19,-2.1896,-2.1937,-2.1946,-2.1962,-2.1998,-2.2007,-2.2019,-2.2024,-2.2059,-2.2066,-2.2094,-2.2101,-2.2104,-2.2092,-2.2126,-2.2117,-2.2115,-2.2113,-2.2065,-2.2059,-2.2054,0,0,0,0,0,-2.189,-2.1878,-2.1896,-2.1902,-2.1943,-2.1961,-2.1966,-2.2,-2.2018,-2.2014,-2.2039,-2.2065,-2.2091,-2.2101,-2.2105,-2.2094,-2.2118,-2.2115,-2.2113,-2.2068,-2.2061,-2.2054,0,0,0,0,0,0,-2.1833,-2.1884,-2.1904,-2.1906,-2.1929,-2.197,-2.1966,-2.1991,-2.2008,-2.2012,-2.2052,-2.2059,-2.206,-2.2077,-2.2087,-2.2083,-2.2108,-2.2106,-2.2072,-2.2065,-2.206,-2.2055,-2.2127,0,0,0,0,0,-2.1821,-2.1833,-2.1876,-2.1873,-2.1884,-2.1923,-2.1932,-2.1957,-2.1982,-2.1991,-2.2017,-2.2038,-2.2052,-2.206,-2.2074,-2.2068,-2.2077,-2.2063,-2.2057,-2.2052,-2.205,-2.2049,-2.2043,-2.2104,-2.2104,-2.2104,0,0,-2.1795,-2.1825,-2.1829,-2.1863,-2.1884,-2.1894,-2.1931,-2.194,-2.1948,-2.1992,-2.1999,-2.2019,-2.2045,-2.2045,-2.2046,-2.206,-2.2035,-2.2049,-2.2045,-2.2046,-2.2046,-2.204,-2.2035,-2.2103,-2.2103,-2.2103,0,0,-2.1754,-2.1778,-2.1779,-2.18,-2.1832,-2.1858,-2.1858,-2.1896,-2.1912,-2.192,-2.1954,-2.1962,-2.1984,-2.2002,-2.2014,-2.1981,-2.2005,-2.1985,-2.1955,-2.1953,-2.1948,-2.1944,-2.1932,-2.1928,-2.1983,-2.1982,-2.1982,0,-2.1718,-2.1737,-2.1775,-2.1783,-2.1797,-2.184,-2.184,-2.1857,-2.1891,-2.1899,-2.1914,-2.1943,-2.1964,-2.1969,-2.1961,-2.1969,-2.197,-2.1981,-2.1946,-2.1942,-2.1939,-2.1928,-2.1924,-2.198,-2.198,-2.198,-2.1981,0,-2.1691,-2.1703,-2.1699,-2.1734,-2.1747,-2.175,-2.1789,-2.1797,-2.182,-2.1845,-2.1852,-2.1879,-2.19,-2.1903,-2.1925,-2.1911,-2.1919,-2.1939,-2.1965,-2.193,-2.192,-2.1917,-2.1976,-2.1977,-2.1978,-2.1978,0,0,-2.1614,-2.1672,-2.167,-2.1686,-2.1725,-2.1735,-2.174,-2.1763,-2.1769,-2.1791,-2.1796,-2.1814,-2.1834,-2.1847,-2.1872,-2.187,-2.1843,-2.1891,-2.1893,-2.1881,-2.1829,-2.1813,-2.1807,-2.1859,-2.1859,-2.1858,-2.1827,0,-2.158,-2.1595,-2.1631,-2.1633,-2.1645,-2.1686,-2.1691,-2.1714,-2.1737,-2.1749,-2.1774,-2.1787,-2.1812,-2.182,-2.1821,-2.1846,-2.1833,-2.1849,-2.1863,-2.1863,-2.1855,-2.1803,-2.1786,-2.1754,-2.1823,-2.1822,-2.1822,0,-2.1542,-2.1564,-2.1568,-2.1608,-2.1614,-2.1618,-2.1642,-2.1653,-2.168,-2.1697,-2.1713,-2.1741,-2.1747,-2.1771,-2.1781,-2.1791,-2.1799,-2.1812,-2.1812,-2.1814,-2.184,-2.1803,-2.1745,-2.174,-2.1817,-2.1817,-2.1817,0,-2.1486,-2.1516,-2.1524,-2.1536,-2.1582,-2.1584,-2.1603,-2.1631,-2.1643,-2.1663,-2.1671,-2.169,-2.1701,-2.1715,-2.1747,-2.1762,-2.1753,-2.178,-2.1766,-2.1765,-2.1762,-2.1761,-2.1704,-2.1767,-2.1767,-2.1767,-2.1767,0,-2.1444,-2.1445,-2.1499,-2.1503,-2.1506,-2.1546,-2.1547,-2.1569,-2.1595,-2.1603,-2.1639,-2.1645,-2.1688,-2.1699,-2.1723,-2.1727,-2.1732,-2.1745,-2.1751,-2.1741,-2.174,-2.1747,-2.1749,-2.1766,-2.1766,-2.1767,-2.1767,0,-2.1381,-2.1418,-2.1429,-2.1472,-2.1483,-2.1483,-2.1519,-2.1524,-2.155,-2.156,-2.1564,-2.1604,-2.1619,-2.1652,-2.1676,-2.1692,-2.169,-2.1702,-2.1681,-2.1685,-2.167,-2.1671,-2.1615,-2.1609,-2.1676,-2.1675,-2.1674,0,-2.1352,-2.1354,-2.1398,-2.1408,-2.1426,-2.144,-2.1453,-2.1492,-2.1504,-2.1536,-2.1536,-2.1555,-2.1571,-2.1593,-2.1623,-2.1641,-2.1653,-2.1633,-2.1656,-2.1646,-2.1653,-2.1652,-2.1652,-2.1627,-2.1626,-2.1625,-2.1625,0,-2.1295,-2.1314,-2.1332,-2.1356,-2.1371,-2.1391,-2.1413,-2.1418,-2.1463,-2.1474,-2.1491,-2.1504,-2.1529,-2.1546,-2.1569,-2.1587,-2.1612,-2.1617,-2.1615,-2.1605,-2.1593,-2.1599,-2.1667,-2.1618,-2.1619,-2.1619,-2.162,-2.162,-2.1249,-2.1253,-2.1285,-2.1304,-2.1326,-2.1346,-2.1353,-2.1381,-2.1396,-2.1421,-2.1443,-2.1458,-2.1485,-2.1519,-2.1535,-2.1546,-2.1559,-2.1556,-2.1555,-2.1553,-2.1549,-2.1592,-2.155,-2.155,-2.1551,-2.1551,-2.1551,0,-2.1194,-2.1218,-2.1235,-2.1266,-2.128,-2.1306,-2.1332,-2.1342,-2.1355,-2.138,-2.1396,-2.1415,-2.1433,-2.1464,-2.1484,-2.1487,-2.1499,-2.149,-2.149,-2.1494,-2.1536,-2.1536,-2.148,-2.148,-2.148,-2.148,-2.148,-2.148,-2.1168,-2.1177,-2.1199,-2.1218,-2.1241,-2.1258,-2.127,-2.1289,-2.1309,-2.1329,-2.1345,-2.1366,-2.1393,-2.1415,-2.1432,-2.1441,-2.1446,-2.1433,-2.1445,-2.1484,-2.1491,-2.1497,-2.1497,-2.1434,-2.1434,-2.1402,-2.1402,-2.1402]}]]